McMinnville, OR

4:26 AM PDT on May 27, 2017 (GMT -0700)
McMinnville Municipal

Weather History for KMMV - February, 2014

Change the Weather History Date:

Friday, February 28, 2014

  Actual Average Record
Temperature  
Mean Temperature 51 °F 44 °F  
Max Temperature 61 °F 53 °F 72 °F (1968)
Min Temperature 41 °F 35 °F 24 °F (1943)
Degree Days  
Heating Degree Days 14 21  
Month to date heating degree days 654 625  
Since 1 July heating degree days 3425 3379  
Cooling Degree Days 0 0  
Month to date cooling degree days 0 0  
Year to date cooling degree days 0 0  
Growing Degree Days 1 (Base 50)    
Moisture  
Dew Point 43 °F    
Average Humidity 78    
Maximum Humidity 100    
Minimum Humidity 55    
Precipitation  
Precipitation 0.00 in 0.17 in 1.61 in (2011)
Month to date precipitation 5.58 4.44  
Year to date precipitation 8.27 10.54  
Sea Level Pressure  
Sea Level Pressure 29.57 in    
Wind  
Wind Speed 8 mph (North)    
Max Wind Speed 15 mph    
Max Gust Speed 17 mph    
Visibility 7 miles    
Events Fog    
T = Trace of Precipitation, MM = Missing Value Source: NWS Daily Summary

Daily Weather History Graph

Daily Weather History Graph

Search for Another Location

Airport or City:

Trip Planner

Search our weather history database for the weather conditions in past years. The results will help you decide how hot, cold, wet, or windy it might be!

Date:

Astronomy

Feb. 28, 2014 Rise Set
Actual Time 6:52 AM PST 5:58 PM PST
Civil Twilight 6:22 AM PST 6:28 PM PST
Nautical Twilight 5:48 AM PST 7:02 PM PST
Astronomical Twilight 5:14 AM PST 7:36 PM PST
Moon 6:10 AM PST (2/28) 5:43 PM PST (2/28)
Length of Visible Light 12h 05m
Length of Day
11h 06m
Waning Crescent, 0% of the Moon is Illuminated
Feb 28
Waning Crescent
Mar 1
New
Mar 8
First Quarter
Mar 16
Full
Mar 23
Last Quarter

Hourly Weather History & Observations

Time (PST) Temp. Windchill Dew Point Humidity Pressure Visibility Wind Dir Wind Speed Gust Speed Precip Events Conditions
12:16 AM 45.0 °F 42.6 °F 44.1 °F 97% 29.73 in 4.0 mi North 4.6 mph - N/A   Overcast
12:53 AM 44.1 °F 41.5 °F 44.1 °F 100% 29.72 in 4.0 mi North 4.6 mph - N/A   Overcast
1:02 AM 44.1 °F 42.5 °F 44.1 °F 100% 29.72 in 4.0 mi North 3.5 mph - N/A   Overcast
1:17 AM 44.1 °F 41.5 °F 44.1 °F 100% 29.71 in 4.0 mi NNW 4.6 mph - N/A   Overcast
1:53 AM 44.1 °F 40.1 °F 43.0 °F 96% 29.70 in 4.0 mi North 6.9 mph - N/A   Overcast
2:25 AM 44.1 °F 40.8 °F 43.0 °F 96% 29.69 in 4.0 mi North 5.8 mph - N/A   Overcast
2:53 AM 44.1 °F 41.5 °F 43.0 °F 96% 29.69 in 4.0 mi North 4.6 mph - N/A   Overcast
3:26 AM 44.1 °F 41.5 °F 43.0 °F 96% 29.67 in 5.0 mi North 4.6 mph - N/A   Overcast
3:53 AM 44.1 °F 40.8 °F 43.0 °F 96% 29.65 in 5.0 mi North 5.8 mph - N/A   Overcast
4:01 AM 44.1 °F 40.8 °F 43.0 °F 96% 29.65 in 6.0 mi North 5.8 mph - N/A   Overcast
4:13 AM 44.1 °F 41.5 °F 43.0 °F 96% 29.65 in 7.0 mi North 4.6 mph - N/A   Overcast
4:31 AM 44.1 °F 40.8 °F 43.0 °F 96% 29.64 in 6.0 mi North 5.8 mph - N/A   Overcast
4:53 AM 44.1 °F 40.8 °F 43.0 °F 96% 29.63 in 4.0 mi NNE 5.8 mph - N/A   Overcast
5:12 AM 43.0 °F 39.5 °F 43.0 °F 100% 29.62 in 2.5 mi NNE 5.8 mph - N/A   Overcast
5:24 AM 43.0 °F 40.3 °F 43.0 °F 100% 29.61 in 1.5 mi NNE 4.6 mph - N/A   Overcast
5:42 AM 43.0 °F 40.3 °F 43.0 °F 100% 29.61 in 0.8 mi ENE 4.6 mph - N/A   Mist
5:53 AM 43.0 °F 41.3 °F 43.0 °F 100% 29.61 in 0.5 mi East 3.5 mph - N/A Fog Fog
6:20 AM 42.1 °F 37.7 °F 42.1 °F 100% 29.59 in 2.0 mi NNE 6.9 mph - N/A   Overcast
6:26 AM 42.1 °F 39.2 °F 42.1 °F 100% 29.59 in 4.0 mi NNE 4.6 mph - N/A   Overcast
6:53 AM 41.0 °F 39.0 °F 41.0 °F 100% 29.58 in 4.0 mi North 3.5 mph - N/A   Mostly Cloudy
7:17 AM 43.0 °F 38.2 °F 43.0 °F 100% 29.56 in 7.0 mi NNW 8.1 mph - N/A   Overcast
7:53 AM 44.1 °F 40.8 °F 44.1 °F 100% 29.56 in 9.0 mi North 5.8 mph - N/A   Overcast
8:53 AM 46.0 °F 41.9 °F 44.1 °F 93% 29.55 in 10.0 mi NNW 8.1 mph - N/A   Mostly Cloudy
9:07 AM 46.9 °F - 44.1 °F 90% 29.55 in 10.0 mi North 9.2 mph - N/A   Mostly Cloudy
9:14 AM 46.9 °F - 45.0 °F 93% 29.55 in 10.0 mi North 9.2 mph - N/A   Partly Cloudy
9:53 AM 48.0 °F - 45.0 °F 89% 29.54 in - North 12.7 mph - N/A   Clear
10:53 AM 51.1 °F - 46.0 °F 83% 29.52 in 10.0 mi North - - N/A   Clear
11:53 AM 53.1 °F - 46.0 °F 77% 29.50 in 10.0 mi NNW 9.2 mph - N/A   Clear
12:53 PM 57.0 °F - 46.9 °F 69% 29.48 in 10.0 mi North 11.5 mph - N/A   Clear
1:53 PM 59.0 °F - 45.0 °F 60% 29.44 in 10.0 mi North 12.7 mph - N/A   Clear
2:53 PM 61.0 °F - 44.1 °F 54% 29.43 in 10.0 mi North 9.2 mph - N/A   Clear
3:53 PM 60.1 °F - 44.1 °F 55% 29.42 in 10.0 mi North 10.4 mph - N/A   Clear
4:53 PM 57.9 °F - 43.0 °F 58% 29.42 in 10.0 mi North 8.1 mph - N/A   Clear
5:53 PM 54.0 °F - 39.9 °F 59% 29.42 in 10.0 mi NNE 9.2 mph - N/A   Clear
6:53 PM 50.0 °F - 41.0 °F 71% 29.43 in 10.0 mi North 6.9 mph - N/A   Partly Cloudy
7:53 PM 48.0 °F - 39.0 °F 71% 29.44 in 10.0 mi North 8.1 mph - N/A   Clear
8:53 PM 46.9 °F - 37.9 °F 71% 29.47 in 10.0 mi North 8.1 mph - N/A   Scattered Clouds
9:53 PM 48.0 °F - 39.0 °F 71% 29.49 in 10.0 mi North 8.1 mph - N/A   Overcast
10:53 PM 48.0 °F - 37.9 °F 68% 29.49 in 10.0 mi North 8.1 mph - N/A   Overcast
11:53 PM 48.0 °F - 37.9 °F 68% 29.50 in 10.0 mi North 6.9 mph - N/A   Overcast